NUSAT-2 (BATATA) (41558 NORAD) Tracking and Keplerian Element Data

This shows tracking and keplerian element data for the satellite.

Feedback or suggestion? Click here.




ElementValue
Catalog41558
NameNUSAT-2 (BATATA)
Epoch Orbit14179
Epoch Day349.19911107
Epoch Year2018
RAAN73.2203
Inclination97.4314
Eccentricity0.0011824
Argument of Perigee231.2971
Mean Anonmoly128.7212
Mean Motion15.28610754
Decay Rate1.153E-05
L11 41558U 16033C 18349.19911107 .00001153 00000-0 44089-4 0 9999
L22 41558 97.4314 73.2203 0011824 231.2971 128.7212 15.28610754141795

Live tracking and technical data element details for NUSAT-2 (BATATA) (NORAD 41558). NUSAT-2 (BATATA) can be tracked NOW for your location showing map with azimuth and elevation plus other details from your city location.

Track the satellite on the map from your city or location and see movement details for azimuth, elevation, latitude, longitude, range, height, and movement on the map or in text.







IsCatalogInMostPopularTable: catalog: 41558, numindb: 78
Update: records affected: 1



GetName: 41558 NUSAT-2 (BATATA)

Hit Count: updated at: Sat, 15 Dec 2018 14:42:34 GMT